• In Deutschland
  • Länderverzeichnis
  • Für 7 Tage
  • Wassertemperatur
  • Satellitenkarten
  • Wetterkarte
  • Widgets
  • user-avatar
    Anmelden

    Stündliche Wetter Lozki

    Heute, 22 September, Samstag

    Zeit Temperatur Niederschläge Wind Luftdruck Luftfeuchtigkeit
    00:00 +16°C° 0 mm 2 m/S 745 mmHg 86%
    01:00 +16°C° 0 mm 3 m/S 745 mmHg 87%
    02:00 +16°C° 0 mm 2 m/S 744 mmHg 89%
    03:00 +16°C° 0 mm 3 m/S 744 mmHg 88%
    04:00 +16°C° 0 mm 3 m/S 744 mmHg 87%
    05:00 +14°C° 0 mm 3 m/S 744 mmHg 86%
    06:00 +17°C° 0 mm 4 m/S 743 mmHg 81%
    07:00 +18°C° 0 mm 4 m/S 743 mmHg 76%
    08:00 +19°C° 0 mm 5 m/S 743 mmHg 69%
    09:00 +21°C° 0 mm 5 m/S 742 mmHg 63%
    10:00 +23°C° 0 mm 6 m/S 742 mmHg 57%
    11:00 +24°C° 0 mm 7 m/S 742 mmHg 52%
    12:00 +26°C° 0 mm 7 m/S 741 mmHg 50%
    13:00 +26°C° 0 mm 6 m/S 741 mmHg 48%
    14:00 +27°C° 0 mm 5 m/S 740 mmHg 46%
    15:00 +26°C° 0 mm 4 m/S 740 mmHg 51%
    16:00 +23°C° 0 mm 4 m/S 740 mmHg 55%
    17:00 +22°C° 0 mm 4 m/S 739 mmHg 60%
    18:00 +20°C° 0.3 mm 4 m/S 739 mmHg 69%
    19:00 +17°C° 0.3 mm 4 m/S 739 mmHg 77%
    20:00 +14°C° 0.3 mm 4 m/S 739 mmHg 86%
    21:00 +13°C° 0.7 mm 5 m/S 739 mmHg 87%
    22:00 +12°C° 0.7 mm 5 m/S 739 mmHg 88%
    23:00 +10°C° 0.7 mm 5 m/S 739 mmHg 90%

    Morgen, 23 September, Sonntag

    Zeit Temperatur Niederschläge Wind Luftdruck Luftfeuchtigkeit
    00:00 +9°C° 1.9 mm 5 m/S 740 mmHg 91%
    01:00 +8°C° 1.9 mm 4 m/S 740 mmHg 92%
    02:00 +7°C° 1.9 mm 4 m/S 740 mmHg 93%
    03:00 +8°C° 0.5 mm 4 m/S 740 mmHg 93%
    04:00 +8°C° 0.5 mm 4 m/S 740 mmHg 93%
    05:00 +9°C° 0.5 mm 3 m/S 740 mmHg 93%
    06:00 +8°C° 0 mm 4 m/S 740 mmHg 92%
    07:00 +10°C° 0 mm 4 m/S 740 mmHg 91%
    08:00 +10°C° 0 mm 4 m/S 741 mmHg 90%
    09:00 +11°C° 0 mm 4 m/S 741 mmHg 84%
    10:00 +12°C° 0 mm 4 m/S 741 mmHg 79%
    11:00 +13°C° 0 mm 4 m/S 741 mmHg 74%
    12:00 +13°C° 0.1 mm 4 m/S 741 mmHg 69%
    13:00 +14°C° 0.1 mm 4 m/S 740 mmHg 65%
    14:00 +15°C° 0.1 mm 5 m/S 740 mmHg 60%
    15:00 +14°C° 0.1 mm 4 m/S 740 mmHg 64%
    16:00 +13°C° 0.1 mm 4 m/S 740 mmHg 68%
    17:00 +12°C° 0.1 mm 3 m/S 740 mmHg 71%
    18:00 +11°C° 0.1 mm 3 m/S 741 mmHg 75%
    19:00 +10°C° 0.1 mm 3 m/S 741 mmHg 80%
    20:00 +9°C° 0.1 mm 3 m/S 741 mmHg 84%
    21:00 +9°C° 0 mm 3 m/S 741 mmHg 85%
    22:00 +8°C° 0 mm 3 m/S 741 mmHg 86%
    23:00 +8°C° 0 mm 3 m/S 741 mmHg 88%

    übermorgen, 24 September, Montag

    Zeit Temperatur Niederschläge Wind Luftdruck Luftfeuchtigkeit
    00:00 +8°C° 0 mm 2 m/S 740 mmHg 87%
    01:00 +8°C° 0 mm 2 m/S 740 mmHg 86%
    02:00 +8°C° 0 mm 2 m/S 740 mmHg 86%
    03:00 +8°C° 0.2 mm 3 m/S 739 mmHg 86%
    04:00 +8°C° 0.2 mm 3 m/S 739 mmHg 87%
    05:00 +7°C° 0.2 mm 4 m/S 738 mmHg 87%
    06:00 +8°C° 0.6 mm 4 m/S 737 mmHg 88%
    07:00 +8°C° 0.6 mm 5 m/S 737 mmHg 89%
    08:00 +8°C° 0.6 mm 5 m/S 736 mmHg 90%
    09:00 +8°C° 2.2 mm 6 m/S 735 mmHg 90%
    10:00 +8°C° 2.2 mm 7 m/S 734 mmHg 91%
    11:00 +8°C° 2.2 mm 7 m/S 733 mmHg 91%
    12:00 +8°C° 1.7 mm 7 m/S 731 mmHg 92%
    13:00 +8°C° 1.7 mm 7 m/S 730 mmHg 92%
    14:00 +9°C° 1.7 mm 6 m/S 728 mmHg 93%
    15:00 +10°C° 1.8 mm 7 m/S 727 mmHg 92%
    16:00 +10°C° 1.8 mm 7 m/S 726 mmHg 91%
    17:00 +11°C° 1.8 mm 7 m/S 726 mmHg 91%
    18:00 +10°C° 0.4 mm 8 m/S 726 mmHg 90%
    19:00 +7°C° 0.4 mm 8 m/S 727 mmHg 89%
    20:00 +6°C° 0.4 mm 9 m/S 727 mmHg 88%
    21:00 +6°C° 0.1 mm 9 m/S 728 mmHg 88%
    22:00 +6°C° 0.1 mm 8 m/S 729 mmHg 87%
    23:00 +6°C° 0.1 mm 8 m/S 730 mmHg 86%

    25 September, Dienstag

    Zeit Temperatur Niederschläge Wind Luftdruck Luftfeuchtigkeit
    00:00 +6°C° 0.1 mm 8 m/S 731 mmHg 86%
    01:00 +6°C° 0.1 mm 7 m/S 732 mmHg 86%
    02:00 +6°C° 0.1 mm 7 m/S 733 mmHg 86%
    03:00 +5°C° 0.1 mm 7 m/S 734 mmHg 85%
    04:00 +5°C° 0.1 mm 7 m/S 734 mmHg 85%
    05:00 +4°C° 0.1 mm 7 m/S 735 mmHg 84%
    06:00 +4°C° 0 mm 7 m/S 736 mmHg 83%
    07:00 +4°C° 0 mm 7 m/S 736 mmHg 83%
    08:00 +4°C° 0 mm 7 m/S 737 mmHg 82%
    09:00 +4°C° 0 mm 7 m/S 738 mmHg 80%
    10:00 +4°C° 0 mm 7 m/S 738 mmHg 78%
    11:00 +5°C° 0 mm 7 m/S 739 mmHg 77%
    12:00 +5°C° 0 mm 7 m/S 739 mmHg 75%
    13:00 +5°C° 0 mm 7 m/S 740 mmHg 74%
    14:00 +5°C° 0 mm 6 m/S 740 mmHg 72%
    15:00 +5°C° 0 mm 6 m/S 741 mmHg 72%
    16:00 +6°C° 0 mm 5 m/S 741 mmHg 71%
    17:00 +6°C° 0 mm 5 m/S 742 mmHg 71%
    18:00 +6°C° 0 mm 5 m/S 743 mmHg 72%
    19:00 +5°C° 0 mm 5 m/S 743 mmHg 74%
    20:00 +3°C° 0 mm 5 m/S 744 mmHg 75%
    21:00 +3°C° 0 mm 5 m/S 745 mmHg 76%
    22:00 +3°C° 0 mm 4 m/S 745 mmHg 77%
    23:00 +3°C° 0 mm 4 m/S 746 mmHg 77%

    26 September, Mittwoch

    Zeit Temperatur Niederschläge Wind Luftdruck Luftfeuchtigkeit
    00:00 +3°C° 0 mm 4 m/S 747 mmHg 77%
    01:00 +1°C° 0 mm 4 m/S 747 mmHg 77%
    02:00 +1°C° 0 mm 4 m/S 748 mmHg 77%
    03:00 0°C° 0 mm 4 m/S 749 mmHg 78%
    04:00 0°C° 0 mm 4 m/S 749 mmHg 79%
    05:00 -1°C° 0 mm 4 m/S 750 mmHg 80%
    06:00 0°C° 0 mm 4 m/S 750 mmHg 77%
    07:00 +1°C° 0 mm 4 m/S 750 mmHg 75%
    08:00 +3°C° 0 mm 4 m/S 750 mmHg 72%
    09:00 +5°C° 0 mm 5 m/S 750 mmHg 67%
    10:00 +7°C° 0 mm 5 m/S 750 mmHg 62%
    11:00 +9°C° 0 mm 6 m/S 750 mmHg 57%
    12:00 +9°C° 0 mm 6 m/S 750 mmHg 58%
    13:00 +10°C° 0 mm 6 m/S 749 mmHg 58%
    14:00 +11°C° 0 mm 6 m/S 749 mmHg 59%
    15:00 +10°C° 0 mm 6 m/S 749 mmHg 63%
    16:00 +9°C° 0 mm 5 m/S 748 mmHg 67%
    17:00 +9°C° 0 mm 5 m/S 748 mmHg 72%
    18:00 +8°C° 0.1 mm 5 m/S 748 mmHg 75%
    19:00 +8°C° 0.1 mm 6 m/S 747 mmHg 78%
    20:00 +6°C° 0.1 mm 7 m/S 747 mmHg 81%
    21:00 +6°C° 0.1 mm 7 m/S 746 mmHg 81%
    22:00 +6°C° 0.1 mm 7 m/S 745 mmHg 80%
    23:00 +5°C° 0.1 mm 7 m/S 745 mmHg 80%

    27 September, Donnerstag

    Zeit Temperatur Niederschläge Wind Luftdruck Luftfeuchtigkeit
    00:00 +5°C° 0.1 mm 8 m/S 744 mmHg 79%
    01:00 +5°C° 0.1 mm 8 m/S 743 mmHg 78%
    02:00 +5°C° 0.1 mm 8 m/S 743 mmHg 77%
    03:00 +5°C° 0.3 mm 8 m/S 742 mmHg 80%
    04:00 +5°C° 0.3 mm 8 m/S 742 mmHg 82%
    05:00 +5°C° 0.3 mm 8 m/S 741 mmHg 85%
    06:00 +5°C° 0.2 mm 8 m/S 741 mmHg 86%
    07:00 +5°C° 0.2 mm 8 m/S 741 mmHg 87%
    08:00 +6°C° 0.2 mm 8 m/S 740 mmHg 88%
    09:00 +6°C° 0.8 mm 7 m/S 740 mmHg 89%
    10:00 +6°C° 0.8 mm 7 m/S 740 mmHg 90%
    11:00 +6°C° 0.8 mm 7 m/S 739 mmHg 90%
    12:00 +6°C° 0.7 mm 7 m/S 739 mmHg 90%
    13:00 +8°C° 0.7 mm 7 m/S 739 mmHg 90%
    14:00 +8°C° 0.7 mm 7 m/S 738 mmHg 90%
    15:00 +8°C° 0.5 mm 7 m/S 738 mmHg 90%
    16:00 +8°C° 0.5 mm 7 m/S 737 mmHg 90%
    17:00 +9°C° 0.5 mm 7 m/S 737 mmHg 90%
    18:00 +9°C° 0.4 mm 7 m/S 737 mmHg 90%
    19:00 +10°C° 0.4 mm 8 m/S 737 mmHg 89%
    20:00 +10°C° 0.4 mm 8 m/S 737 mmHg 89%
    21:00 +10°C° 0.2 mm 7 m/S 737 mmHg 88%
    22:00 +9°C° 0.2 mm 7 m/S 737 mmHg 87%
    23:00 +9°C° 0.2 mm 6 m/S 737 mmHg 86%
    Mehr zeigen